Weather Roundup
Issued by NWS Springfield, MO

Home | Current Version | Previous Version | Text Only | Print | Product List | Glossary On
Versions: 1 2 3 4 5 6 7 8 9 10 11 12 13 14 15 16 17 18 19 20 21 22 23 24 25 26 27 28 29 30 31 32 33 34 35 36 37 38 39 40 41 42 43 44 45 46 47 48 49 50
000
NZUS99 KSGF 291707
HRRSGF

HOURLY WEATHER
NATIONAL WEATHER SERVICE SPRINGFIELD MO
1200 PM CDT WED JUL 29 2015

......SGF CWA......

CITY           SKY/WX    TMP DP  RH WIND       PRES   REMARKS
SPRINGFIELD    SUNNY     89  71  55 VRB3      30.10S HX  95
JOPLIN         SUNNY     92  70  48 E6        30.09F HX  97
WEST PLAINS    SUNNY     91  72  53 NW7       30.10F HX  98
ROLLA          PTSUNNY   81  71  71 N13G22    30.09R
OSAGE BEACH    PTSUNNY   81  70  69 NE10      30.11S
BRANSON        SUNNY     90  72  55 SW8       30.13S HX  96

......SURROUNDING SGF CWA......

CITY           SKY/WX    TMP DP  RH WIND       PRES   REMARKS
CHANUTE          N/A    N/A N/A N/A MISG      30.09S
PARSONS        SUNNY     89  74  60 SE8       30.09F HX  98
COFFEYVILLE    SUNNY     91  71  51 VRB7      30.07F HX  97
EMPORIA        CLOUDY    75  68  78 N7        30.14F
GROVE OK       SUNNY     91  68  46 CALM      30.10S HX  95
ROGERS AR      SUNNY     88  70  55 NW7       30.14S HX  93
SILOAM SPRINGS SUNNY     90  68  48 NW5       30.11S HX  93
HARRISON AR    SUNNY     89  71  55 NW7       30.13S HX  95
NEAR YELLVILLE SUNNY     91  72  52 W6        30.07F HX  98

......KANSAS AND MISSOURI......

CITY           SKY/WX    TMP DP  RH WIND       PRES   REMARKS
KANSAS CTY INT PTSUNNY   79  73  82 NW7       30.16R
DOWNTOWN KC    CLOUDY    81  72  74 VRB7      30.14R
COLUMBIA       MOSUNNY   82  69  64 N10       30.12R
SEDALIA        MOSUNNY   85  71  63 NE13      30.14S HX  90
ST JOSEPH      PTSUNNY   82  70  66 N9        30.15R
ST LOUIS       PTSUNNY   84  71  65 N12       30.06R
SPIRIT OF STL  CLOUDY    84  73  69 NW5       30.05S HX  90
KIRKSVILLE     CLOUDY    80  65  59 N8        30.13S
WICHITA        PTSUNNY   83  70  64 NE9       30.12F
TOPEKA         PTSUNNY   81  70  69 CALM      30.17R
OLATHE         PTSUNNY   80  70  71 N9        30.16R

......TENNESSEE......

CITY           SKY/WX    TMP DP  RH WIND       PRES   REMARKS
MEMPHIS        PTSUNNY   94  76  55 NW10      30.04S HX 106
NASHVILLE      PTSUNNY   88  74  63 VRB7      30.04F HX  96

......ARKANSAS.......

CITY           SKY/WX    TMP DP  RH WIND       PRES   REMARKS
FAYETTEVILLE   SUNNY     89  70  53 VRB3      30.12S HX  94
FT SMITH       SUNNY     93  69  45 CALM      30.07F HX  98
LITTLE ROCK    MOSUNNY   97  70  41 W6        30.05F HX 103

......OKLAHOMA.......

CITY           SKY/WX    TMP DP  RH WIND       PRES   REMARKS
TULSA          MOSUNNY   91  72  53 E7        30.06F HX  98
PONCA CITY     SUNNY     89  72  56 E18       30.07F HX  96
MCALESTER      SUNNY     93  70  46 VRB3      30.09R HX  99
OKLAHOMA CITY  SUNNY     90  70  51 CALM      30.07R HX  95

......IOWA............

CITY           SKY/WX    TMP DP  RH WIND       PRES   REMARKS
DES MOINES     PTSUNNY   83  49  30 NW18G24   30.11S
QUAD CITIES    SUNNY     84  57  39 NW12      30.06R

......ILLINOIS........

CITY           SKY/WX    TMP DP  RH WIND       PRES   REMARKS
QUINCY         MOSUNNY   82  66  58 N12       30.08S
CHICAGO        MOSUNNY   85  58  39 NW12      29.98S



USA.gov is the U.S. government's official web portal to all federal, state and local government web resources and services.